GFSNIL_sfc_dewp_159.txt.gz
Dewpoint
57 57 57 57 57 58 59 59 59 59 61 61 61 61 61 59 59 58 58 57 54 55
55 55 55 56 56 56 56 57 58 59 59 60 62 61 60 59 58 58 58 57 54 52
56 55 55 55 54 55 56 57 57 58 58 59 60 60 60 59 58 56 55 54 52 51
55 54 54 54 54 54 55 55 56 56 57 59 58 59 59 58 57 55 53 53 52 51
53 53 53 53 53 54 53 54 54 55 57 58 57 57 57 56 55 53 53 52 52 50
52 52 52 53 53 53 53 53 53 55 55 56 55 55 55 54 54 53 53 52 51 50
50 49 49 50 51 52 52 52 52 53 53 53 53 53 53 52 52 51 51 51 51 51
47 47 47 47 48 49 51 51 52 52 52 52 52 52 51 51 51 50 50 50 50 50
46 46 46 46 46 47 49 50 51 52 52 52 52 53 52 50 49 49 49 49 50 50
45 45 45 45 45 45 46 48 50 51 52 52 52 53 52 50 48 48 47 47 46 46
44 44 44 44 43 44 45 46 46 47 48 50 51 52 50 47 43 42 42 41 41 40
43 43 43 42 42 42 44 44 44 45 45 45 46 48 46 42 41 41 41 41 40 39
43 42 41 41 40 41 42 43 43 43 44 45 44 45 44 41 40 40 40 41 41 43
43 41 40 40 41 41 41 41 40 41 41 42 43 43 43 42 38 38 38 38 39 39

GFSNIL_sfc_dewp_162.txt.gz
Dewpoint
58 58 59 59 59 58 59 59 60 61 61 60 60 61 61 60 61 60 59 58 56 56
57 57 58 57 58 58 58 58 59 60 60 61 61 61 61 61 60 60 59 59 57 56
56 56 56 57 57 56 56 56 57 57 59 59 60 61 61 60 60 59 59 58 56 53
55 55 55 55 55 55 55 55 56 57 57 58 59 60 61 60 58 57 56 55 54 52
54 54 54 54 54 55 55 55 55 56 57 57 58 59 59 58 56 54 54 52 52 52
53 54 54 54 54 53 53 54 54 55 56 58 57 57 57 55 54 53 53 52 52 52
51 51 52 53 52 53 53 53 53 54 54 54 55 54 54 54 53 53 53 52 52 52
49 50 49 50 50 51 52 53 53 53 53 53 53 53 52 52 52 51 51 51 51 51
48 49 48 49 49 50 51 52 53 52 52 53 53 54 53 52 51 50 50 50 51 52
47 48 48 47 48 48 49 51 51 52 52 52 53 54 53 51 49 48 48 47 47 46
46 46 46 47 46 46 47 48 49 50 51 51 51 52 51 49 45 44 43 42 42 43
45 45 45 46 46 46 46 46 47 48 48 48 48 49 48 44 43 42 42 42 41 40
45 44 44 44 45 45 45 44 45 45 46 47 45 46 46 45 42 42 41 40 41 43
44 43 44 44 44 44 43 44 43 43 43 43 43 43 44 45 40 38 37 36 37 39

GFSNIL_sfc_dewp_165.txt.gz
Dewpoint
59 59 58 59 58 58 59 59 61 62 61 60 58 60 61 61 61 60 59 58 57 56
57 57 57 58 58 58 58 58 58 60 60 61 61 60 61 61 60 60 60 59 57 57
56 56 56 56 57 57 57 57 57 59 60 60 60 60 61 61 60 59 59 59 57 55
55 55 55 55 55 55 56 55 55 57 57 59 60 61 61 61 60 59 59 58 56 54
54 55 55 54 54 54 54 55 55 55 57 57 57 59 60 59 58 57 56 55 55 54
54 54 54 54 54 54 53 54 54 55 55 56 57 58 59 58 55 54 53 53 52 52
52 53 53 53 53 52 53 53 54 55 56 56 55 55 55 54 53 53 53 53 53 52
51 51 51 51 51 52 53 53 53 53 53 54 53 53 53 53 53 52 51 51 51 52
50 50 50 50 50 51 52 53 53 53 53 53 53 54 53 52 51 51 51 51 51 52
49 49 49 49 50 50 51 52 52 52 52 53 53 54 53 51 49 48 48 47 47 48
49 48 48 48 48 48 49 50 50 51 51 51 52 52 51 49 46 45 45 45 44 43
47 48 47 47 46 47 48 48 49 48 48 49 49 50 48 45 43 43 43 42 40 39
46 47 47 46 46 45 46 46 47 46 46 47 46 48 47 45 43 42 41 41 41 43
46 46 46 46 45 45 45 45 44 44 44 44 44 45 48 48 41 38 36 36 37 38

GFSNIL_sfc_dewp_168.txt.gz
Dewpoint
58 57 58 58 57 57 57 58 60 60 60 59 58 59 60 60 60 60 59 58 56 56
57 58 57 59 59 59 58 58 59 60 60 60 59 59 60 59 59 59 59 59 57 57
56 56 56 56 56 56 56 56 56 58 59 60 60 60 59 59 60 60 59 59 57 56
55 55 55 55 55 55 55 55 55 56 57 59 59 60 59 60 59 59 59 58 57 55
55 54 54 53 53 53 54 55 54 55 56 57 58 58 60 59 59 58 57 57 56 54
53 53 53 54 53 53 53 53 54 55 55 56 56 58 59 58 57 56 55 55 55 53
53 53 53 52 52 53 53 53 54 55 56 56 56 56 55 54 53 53 53 53 53 53
51 51 51 51 52 52 53 53 53 53 54 54 54 54 53 53 52 51 51 52 52 52
50 50 50 50 51 52 53 53 53 53 53 53 54 54 53 52 51 51 51 50 51 52
49 49 49 50 50 51 51 52 52 52 53 53 53 54 53 52 49 48 48 48 48 47
49 49 48 48 48 49 50 50 50 51 51 51 52 53 51 50 47 46 46 45 44 42
48 48 47 47 48 49 49 48 49 49 49 49 50 51 49 45 43 43 41 39 38 38
48 47 47 46 47 48 48 46 47 46 47 48 46 49 48 44 41 40 40 40 40 42
47 47 46 46 46 47 46 45 44 43 43 43 45 48 49 46 39 38 37 38 38 38

GFSNIL_sfc_dewp_174.txt.gz
Dewpoint
56 55 55 56 56 56 56 56 57 57 58 60 60 59 58 60 60 58 57 57 56 56
56 56 56 56 56 56 56 56 57 58 58 59 58 57 58 59 59 58 58 57 54 54
56 56 56 57 56 56 57 58 59 59 60 60 59 58 57 56 57 56 56 56 55 55
55 55 55 55 55 56 55 55 55 56 58 59 59 60 59 56 57 57 58 58 57 55
54 53 53 53 53 54 53 55 54 54 55 57 58 59 59 57 58 58 58 57 57 56
53 53 53 52 53 53 53 53 54 54 54 55 57 58 58 57 57 57 56 57 56 55
53 52 52 52 53 53 53 54 54 55 55 55 57 57 56 55 54 53 53 53 54 54
52 52 52 52 53 53 53 54 54 54 54 55 55 55 54 53 52 52 52 52 53 53
51 51 52 52 53 53 53 53 53 53 53 54 54 55 54 52 51 51 50 50 51 54
51 51 51 52 52 52 52 53 52 53 53 53 53 54 53 51 49 48 48 47 43 42
50 50 51 51 50 51 51 51 51 52 52 52 53 53 51 49 44 43 41 38 37 37
49 49 50 49 49 50 50 50 50 51 51 51 50 49 45 41 39 38 37 37 38 39
49 49 49 49 48 49 49 49 49 48 47 48 46 46 44 40 39 39 40 40 40 43
49 49 49 48 48 48 47 47 46 45 44 43 43 43 44 42 38 39 39 40 40 41

GFSNIL_sfc_dewp_180.txt.gz
Dewpoint
58 58 57 56 56 56 56 56 57 57 57 57 57 58 59 59 59 58 58 57 56 56
57 57 57 56 55 56 56 57 58 57 56 57 58 59 59 57 56 58 57 54 56 56
56 57 56 56 55 55 55 56 58 57 57 57 58 58 58 57 59 58 55 57 56 56
56 56 55 55 55 56 56 56 57 57 57 58 58 58 56 56 56 57 56 57 56 56
55 55 54 53 54 55 55 55 56 57 58 59 59 58 58 57 56 56 56 56 56 56
53 53 52 52 53 53 54 53 54 54 54 56 58 58 58 58 58 57 57 57 57 56
52 52 52 52 53 52 52 53 53 53 54 55 57 57 57 56 55 54 54 54 54 54
52 52 52 52 52 52 52 53 54 54 54 55 56 56 55 54 53 53 53 53 53 53
51 52 52 52 53 53 53 54 54 54 54 54 55 55 54 53 52 50 49 48 47 50
51 52 52 52 52 52 52 53 53 53 53 54 54 55 54 51 47 46 45 43 42 40
51 52 52 52 51 52 52 52 52 52 52 52 53 53 50 47 42 40 39 37 36 34
51 51 51 50 50 51 51 51 51 50 49 49 48 48 47 42 39 38 38 38 38 37
51 51 50 50 50 50 50 48 47 46 46 47 45 46 44 40 39 39 39 39 40 43
50 50 50 50 50 49 47 46 44 43 42 42 42 42 43 42 38 38 38 38 38 38

GFSNIL_sfc_dewp_183.txt.gz
Dewpoint
62 62 60 61 61 60 60 60 61 61 61 60 59 60 60 60 60 60 60 59 58 58
60 60 59 58 59 60 59 59 60 60 60 59 59 60 60 60 60 60 60 59 59 58
59 59 59 58 58 59 59 60 60 59 59 59 60 59 59 59 59 59 59 59 58 58
58 57 58 58 58 58 58 59 59 58 58 59 59 58 58 58 58 58 57 58 57 57
57 57 57 57 57 57 57 58 58 58 57 59 58 58 57 57 57 56 56 56 56 56
56 56 56 56 56 55 55 55 56 56 58 59 59 58 58 58 57 57 57 57 57 56
55 55 55 54 53 54 53 54 54 54 55 57 58 58 58 57 56 55 55 55 55 55
53 53 53 52 52 53 53 53 53 54 54 56 57 57 55 55 54 54 53 53 54 54
52 52 52 53 53 53 54 55 55 54 55 56 56 55 55 54 52 51 50 48 48 51
52 52 52 53 53 53 53 54 54 54 55 55 55 55 54 51 48 47 46 44 41 36
52 52 52 53 52 53 53 53 53 53 53 53 53 53 51 48 42 40 39 37 34 34
52 52 52 51 51 52 52 51 51 51 50 50 50 50 47 43 39 38 37 37 38 39
51 51 51 51 51 50 49 48 47 47 47 48 45 46 45 41 39 39 39 40 40 43
51 51 51 50 49 47 47 46 45 44 44 43 43 43 44 42 38 38 39 39 39 40